Terminal Aerodrome Forecast
Issued by NWS Charleston, SC

Home | Current Version | Previous Version | Text Only | Print | Product List | Glossary On
Versions: 1 2 3 4 5 6 7 8 9 10 11 12 13 14 15 16
012
FTUS42 KCHS 240538
TAFSAV
TAF
KSAV 240538Z 2406/2506 22004KT P6SM SCT250
     FM241800 15010KT P6SM SCT040
     FM250200 16005KT P6SM FEW080=

USA.gov is the U.S. government's official web portal to all federal, state and local government web resources and services.